OPS 4682 DEB, 38388

Orbit data source: Space-Track

OPS 4682 DEB, 38388 is space debris in LEO originally from a launch on Sat, 03 Apr 1965 UTC launched from the Air Force Western Test Range (AFWTR). Debris objects in space refer to the collection of defunct objects orbiting the Earth. Examples of debris include non-operational satellites, rocket bodies, and fragments generated from explosions, collisions, or faulty payload assembly.

Loading next visibility...
Identifier
38388, 1965-027CR
Orbit
LEO
Country
Flag of USUS
Related business
Manufacturer
Unknown
Mission
Spacecraft
Bus & Motor
Unknown
Mass
Unknown
Launch date (UTC)
1965-04-03 (61 years ago)
Launch vehicle
Unknown
Launch site
Air Force Western Test Range (AFWTR)
Object type
Payload
Rocket body
Debris
Shape & HBR
Unknown shape, 0.1 m
Radar Cross Section
Medium (>0.1 m² and <1 m²)

Expand to show TLE details & history
Last TLE update: 1 week ago

TLE from 1 week ago
0 OPS 4682 DEB
1 38388U 65027CR  26226.89122013  .00000872  00000-0  28414-2 0  9992
2 38388  90.2738  24.4978 0036821 193.1997 166.8166 13.00599941671698
Epoch: 2026-08-14T21:23Z
TLE epoch observation values (Epoch: 2026-08-14T21:23:21.419Z)
Latitude
0.00005°
Longitude
100.34861°
Altitude
1,290.014 km
Speed
7.198 km/s
True Right ascension
01h 37m 59s
True Declination
0° 00' 00"
Sunlit
Object was in daylight at epoch
Visualization orbit readout
Latitude
Unknown
Longitude
Unknown
Altitude
Unknown
Speed
Unknown
Apparent Right ascension
Unknown
Apparent Declination
Unknown
Sunlit
N/A
Visualization observer readout
Local Sidereal Time
16:03:00
Azimuth
Unknown
Elevation
Unknown
Doppler factor
Unknown
Orbital elements
Apogee altitude
1,284.976 km
Perigee altitude
1,228.75 km
Semi-major axis
7,635 km
Eccentricity
0.00368
Inclination
90.2738°
RAAN
24.4978°
Arg. of periapsis
193.1997°
True anomaly
166.9124°
Mean anomaly
166.8166°
Eccentric anomaly
166.86454°
Mean motion
3.25334 °/min
Orbital period
110.66 mins
BSTAR
0.0028414
Loading maneuver chart data...
Computing Atmospheric mass density...
Loading historical data...
Loading historical data...
Loading historical data...
Loading historical data...
Loading historical data...
Loading historical data...
Loading historical data...

Documentation

Showing up to 5 results
|